Terug naar catalogus

STARLINK-11597

ActiefCommunicatieVLEO
NORAD 63115·PAYLOAD·🇺🇸 United States

Gelanceerd Feb 27, 2025 vanaf Cape Canaveral Space Force Station

Loading…

Volgende Passages (komende 24 uur)

TLE

VersSource: CelesTrak SupGP

Epoch: Sep 14, 2026, 21:04 UTC

1 63115C 25039M   26257.87826389  .00014614  00000+0  11353-3 0  2576
2 63115  43.0004 176.1637 0001554 254.1009  97.4940 15.70826101    11

Volg STARLINK-11597 in realtime met AllMySat

Download on the App Store